Theta_e
311 313 316 317 318 318 319 319 320 320 320 320 321 320 320 319 318 318 318 320 324 326 329 328 328 330 329 333 337 348 349 352 353 349 354 353 352 352 351 352 353 353 353 353
313 315 316 317 318 319 319 320 320 320 320 320 321 321 321 319 319 319 320 323 324 325 326 329 328 327 329 335 337 345 350 351 350 350 351 351 351 350 352 350 349 347 345 344
316 316 316 317 318 319 319 319 320 320 320 320 321 321 321 321 320 321 323 324 324 324 325 326 328 328 327 334 327 329 346 351 350 350 346 342 338 337 331 331 331 332 332 331
318 318 317 317 318 319 319 318 319 319 320 322 322 322 321 321 322 321 323 323 323 323 325 327 329 327 329 333 338 342 345 346 346 344 340 328 327 327 325 324 324 326 329 328
318 318 318 318 318 318 319 319 319 319 320 322 322 321 323 322 322 322 323 322 322 323 324 325 326 325 329 335 337 334 334 332 329 332 330 328 324 326 325 327 330 330 330 329
318 317 317 317 317 318 318 319 320 320 320 323 321 322 321 322 322 323 323 324 324 325 326 326 326 328 331 332 331 329 327 327 328 328 329 330 331 329 327 328 327 324 324 324
317 317 317 317 318 318 319 321 322 321 321 322 322 322 321 323 323 323 324 325 325 326 328 329 329 329 327 327 326 326 325 323 322 322 321 321 323 323 322 323 321 322 321 320
319 318 317 317 318 319 320 321 322 321 322 321 323 322 322 324 324 325 325 327 328 329 330 329 329 327 325 325 324 323 322 321 320 319 318 318 318 317 317 317 318 318 317 317
319 319 317 317 319 319 321 321 321 323 323 323 323 322 323 324 325 325 327 328 328 328 328 328 326 325 323 322 321 320 319 319 317 317 316 316 316 316 316 316 316 315 315 315
320 321 318 317 319 320 321 321 323 322 324 324 320 322 322 324 324 326 327 328 327 325 324 324 324 322 320 319 318 317 316 316 315 314 314 314 314 314 314 314 314 314 314 314
320 322 323 323 322 321 322 323 323 324 324 328 325 323 324 324 325 327 327 327 325 324 323 322 321 319 318 317 316 316 315 314 314 313 312 312 313 313 313 313 313 313 313 313
320 322 325 322 323 323 323 322 324 325 326 324 324 324 324 324 325 326 326 325 324 323 322 321 319 317 317 316 315 314 314 312 312 311 311 311 312 312 312 312 312 312 312 313
322 324 326 326 324 323 324 324 324 326 327 329 331 325 323 323 324 325 324 322 322 321 320 319 318 317 315 314 314 313 312 311 310 310 310 311 311 312 312 312 312 311 311 311
324 326 325 326 325 325 324 323 323 324 325 324 324 323 324 323 324 322 321 321 319 318 318 317 316 316 314 313 312 311 310 310 310 310 310 310 310 311 311 311 310 310 309 309
326 328 327 325 325 325 325 325 324 325 324 325 324 322 322 323 323 322 321 320 319 318 317 316 315 315 313 311 310 309 309 309 309 309 309 310 309 309 309 309 309 308 308 308
325 328 326 326 325 324 324 323 323 323 322 324 323 323 321 321 322 321 321 320 319 318 315 314 313 312 311 310 309 309 309 309 308 308 308 308 308 308 307 307 307 307 308 308
325 327 329 327 323 322 323 321 321 321 322 322 323 321 320 321 321 321 320 318 318 316 314 313 312 310 309 309 308 308 307 307 306 306 306 307 307 306 306 305 306 307 307 307
325 324 322 322 322 321 318 317 317 318 318 318 318 318 318 320 320 319 318 317 316 314 313 312 310 309 308 308 307 306 305 304 304 304 304 305 305 304 304 303 306 307 307 307
322 322 323 322 320 315 315 319 319 319 321 319 320 320 319 320 318 317 314 313 313 311 310 308 308 307 307 306 305 304 303 302 302 302 302 302 301 301 302 304 305 306 306 305
319 319 319 319 320 317 322 319 320 321 324 320 320 320 320 319 321 319 314 311 310 308 308 308 307 306 306 304 302 302 302 301 301 300 299 298 297 299 301 302 304 305 304 306
319 319 320 318 320 317 318 317 320 323 325 320 319 319 320 319 319 314 311 310 308 307 307 306 306 305 303 302 301 300 299 299 298 298 296 296 297 299 300 302 304 304 305 303
319 321 320 319 319 322 317 318 322 323 320 320 319 318 316 314 312 310 309 308 307 306 305 305 304 303 301 300 298 297 297 297 296 295 295 296 297 299 300 302 302 304 304 303
321 319 321 319 321 320 320 322 321 320 319 318 317 315 314 313 310 308 307 306 305 303 303 303 302 301 300 297 296 295 295 295 295 295 295 295 297 299 300 301 302 303 303 303
320 318 321 320 319 320 321 320 318 317 317 317 316 314 311 310 308 306 305 304 303 302 301 302 303 300 298 296 295 295 294 293 294 294 294 295 296 298 299 301 303 302 302 302
319 319 319 320 319 319 319 319 317 316 315 312 310 309 308 307 305 303 301 301 301 301 301 301 302 300 298 293 292 293 293 293 293 293 294 294 295 296 298 298 299 300 302 301
318 318 321 320 319 319 320 317 315 314 312 309 308 307 305 303 301 300 300 300 300 300 299 299 299 299 297 293 291 291 292 292 292 293 294 294 295 296 296 296 299 300 300 301
Wind_Speed
17 13 17 19 17 10 4 6 10 10 6 10 14 17 19 13 13 17 19 18 19 21 19 28 19 16 8 5 1 2 8 13 13 13 14 12 14 12 10 11 10 10 9 9
12 19 18 12 13 12 11 12 14 12 7 5 11 14 13 10 14 14 18 18 17 17 16 23 17 9 17 16 7 8 13 14 16 12 14 11 10 7 8 7 7 6 7 8
19 11 16 14 12 13 14 15 13 13 8 13 12 16 13 11 13 17 19 18 16 18 16 16 9 18 17 13 16 11 12 12 12 15 15 14 11 9 8 7 6 6 6 6
20 14 10 16 15 14 14 14 15 16 13 9 7 11 11 9 13 16 19 17 17 19 16 15 11 14 10 10 11 14 14 13 15 15 15 19 15 12 8 8 6 6 7 6
18 17 19 15 16 15 14 12 14 17 15 14 14 9 4 5 8 17 13 15 16 15 18 14 12 12 11 15 18 17 17 14 11 9 13 12 10 8 6 4 3 5 7 8
21 12 16 21 18 16 10 8 10 13 13 13 16 8 8 5 2 6 10 10 6 4 4 8 14 17 18 20 19 17 15 12 11 11 8 8 7 5 4 4 5 8 10 11
19 20 14 12 14 14 13 11 9 11 13 12 4 8 11 7 5 3 10 9 7 6 9 12 15 18 22 19 17 15 12 13 11 10 9 7 4 3 3 5 7 9 13 14
16 17 22 16 18 17 17 15 12 14 13 13 11 8 6 6 0 1 4 10 11 11 13 15 15 18 20 17 14 13 12 11 8 8 7 7 7 6 6 8 10 13 16 18
17 21 13 21 17 19 12 13 16 17 4 8 9 8 4 6 5 7 10 12 14 14 14 14 12 14 15 15 13 10 9 8 7 6 6 6 5 7 9 11 13 16 18 20
9 13 13 19 16 12 15 12 9 10 14 15 15 10 6 12 9 10 13 15 15 14 13 12 11 13 12 12 10 9 7 5 4 5 5 7 9 11 12 14 17 19 21 22
14 8 11 13 17 18 9 12 10 7 10 9 12 7 6 2 7 12 13 15 15 14 13 11 11 12 11 10 8 6 2 1 3 5 7 10 12 14 15 17 19 20 20 21
23 10 11 18 6 5 8 18 17 9 13 10 10 5 7 3 6 10 13 13 13 12 11 11 11 11 9 6 4 2 4 6 7 9 11 13 15 16 18 19 20 19 21 20
15 10 13 11 8 4 11 10 9 5 4 12 10 9 4 3 7 10 12 11 11 11 10 8 7 6 5 2 2 3 5 7 9 11 13 15 16 18 19 20 20 20 21 22
19 8 14 11 1 0 14 9 12 13 10 12 14 9 7 8 10 9 11 11 12 9 10 5 4 4 2 4 5 8 10 11 13 14 16 17 18 19 19 19 19 19 19 19
6 10 7 5 5 4 7 12 15 15 15 15 14 7 7 9 9 12 12 11 11 9 9 5 2 3 4 7 9 11 13 13 14 16 17 18 18 18 18 18 19 19 19 17
3 7 10 13 14 13 15 16 10 11 9 8 9 9 3 1 5 8 9 9 9 9 4 3 1 5 6 9 11 12 14 14 15 17 19 18 18 17 17 19 20 18 17 18
10 11 14 11 9 9 13 16 15 14 12 11 13 11 8 6 9 8 8 8 7 6 3 1 4 5 8 10 12 14 15 16 17 18 18 18 18 18 19 20 19 18 18 20
11 10 6 6 8 11 4 3 2 7 8 11 12 11 7 8 6 6 7 7 6 2 3 4 6 8 9 12 14 16 16 17 18 19 18 18 18 18 19 19 19 19 20 22
3 6 4 5 10 4 8 5 4 8 8 1 4 3 3 11 14 10 8 6 5 4 4 7 9 11 12 13 15 17 18 18 19 19 18 18 19 20 21 20 20 20 21 23
5 4 4 5 4 4 8 4 1 3 5 4 5 7 10 14 9 10 7 5 5 7 9 10 11 12 13 15 17 18 19 19 19 19 20 20 20 21 21 21 22 22 22 24
8 5 7 5 2 1 5 1 3 5 5 8 10 10 6 6 7 8 5 5 7 8 9 11 12 13 15 16 17 18 19 19 19 20 21 20 20 21 21 21 21 21 24 25
6 6 4 4 4 3 3 4 3 6 10 10 11 11 13 12 9 8 6 6 6 7 10 12 13 14 15 15 16 18 18 19 20 20 21 21 20 20 19 20 22 22 22 22
4 2 4 3 3 6 4 7 7 8 12 12 12 12 11 9 8 6 6 5 6 7 8 10 12 13 14 15 15 17 19 19 20 21 21 21 20 19 18 19 22 21 20 19
5 4 4 6 7 7 8 9 10 12 14 12 11 9 9 9 7 6 5 5 5 7 9 9 12 14 15 18 16 16 18 19 19 21 21 20 19 19 18 17 18 19 19 18
3 6 6 5 7 7 7 9 13 15 13 13 11 11 10 9 8 6 6 6 7 8 9 9 12 14 15 19 19 19 18 20 21 21 20 18 17 18 18 17 19 20 19 20
6 4 5 1 7 2 12 13 16 14 14 13 13 11 11 10 8 7 6 7 8 9 11 12 13 15 16 19 23 24 21 22 23 21 18 18 19 19 19 20 22 19 20 23
Wind_Direction
185 193 203 202 214 255 235 233 254 257 269 257 266 258 266 249 232 231 226 205 219 226 209 236 248 229 179 155 106 235 198 179 185 185 209 206 206 201 209 217 219 219 217 221
175 217 203 215 204 227 227 240 250 258 265 290 282 271 266 240 226 225 213 216 205 221 216 212 168 169 205 186 151 200 218 188 191 178 171 193 178 192 194 196 183 182 197 210
200 210 210 207 204 220 229 243 251 259 289 283 267 258 240 222 212 211 227 228 218 239 227 205 201 200 216 183 216 206 205 181 176 172 167 158 151 141 157 168 171 189 200 215
225 178 187 202 214 216 235 232 248 267 264 272 194 278 186 191 213 218 217 213 225 234 208 225 196 205 187 182 174 185 164 164 158 160 160 152 161 170 174 185 199 205 217 236
208 210 210 206 207 211 250 263 255 249 249 259 227 244 140 174 220 210 221 229 223 213 210 186 209 197 181 166 156 140 130 130 121 120 147 161 165 157 165 170 200 230 246 253
229 191 218 223 221 232 250 228 239 245 243 236 240 238 226 169 274 176 193 201 207 207 187 161 154 153 151 142 137 130 125 111 103 108 103 112 128 149 193 211 246 260 267 271
214 220 215 225 204 201 209 230 218 215 221 237 199 214 273 114 123 76 151 143 159 152 148 146 153 141 138 134 131 131 125 110 107 104 99 89 81 56 12 312 291 284 282 284
208 207 212 199 219 207 207 221 237 215 220 220 155 221 234 117 51 109 116 130 137 148 146 148 139 140 130 127 129 125 120 104 93 79 56 42 14 341 318 302 300 295 289 290
204 223 183 209 205 219 203 219 247 273 312 273 183 196 194 159 158 155 146 146 145 144 142 135 130 126 124 118 111 106 97 83 64 46 21 353 333 315 302 297 290 287 286 281
194 212 194 191 215 213 250 226 206 229 246 228 241 221 268 178 181 162 160 155 148 134 133 133 126 116 106 101 95 85 77 61 26 358 337 318 307 301 298 292 283 279 276 277
211 244 170 168 201 196 185 211 234 254 224 244 254 232 61 43 169 173 164 155 151 154 143 134 125 124 123 124 124 120 109 16 324 314 306 300 294 289 285 281 278 280 283 280
209 221 195 198 96 318 246 217 200 217 211 237 252 257 101 95 161 173 157 157 159 148 140 135 134 135 132 128 113 46 350 327 319 310 304 298 293 291 288 286 286 289 288 284
172 206 206 202 191 188 224 207 239 262 280 220 227 248 75 124 177 185 163 148 144 132 127 127 135 126 119 120 14 337 315 308 301 299 297 296 295 294 293 293 295 293 293 289
188 170 211 212 123 165 213 224 219 227 232 238 246 241 152 150 169 164 155 153 135 138 128 124 132 112 67 347 343 331 321 317 313 309 304 299 296 292 287 284 284 285 285 284
202 187 197 191 254 250 271 272 234 235 248 253 252 223 256 173 187 169 158 157 148 144 149 139 170 50 350 342 332 322 318 311 306 300 295 293 293 292 291 291 290 289 289 284
322 167 168 192 210 211 218 236 225 220 238 239 253 249 227 236 241 163 177 169 165 142 147 104 357 351 342 328 322 313 304 304 303 297 294 296 294 293 293 293 292 291 290 289
189 165 175 170 184 202 235 236 227 241 233 249 244 243 247 182 228 188 168 173 153 137 113 14 342 345 331 321 314 309 312 310 307 304 304 303 302 300 297 296 293 292 293 293
172 171 161 136 169 219 104 60 309 267 261 254 247 257 241 197 161 133 144 138 125 96 24 349 344 334 328 322 321 320 317 314 312 308 307 306 303 299 297 293 290 292 292 293
192 154 145 172 198 54 159 162 192 207 143 115 258 230 164 115 122 120 99 80 72 29 1 350 347 337 329 327 326 321 320 319 316 312 307 307 304 298 293 291 291 292 295 294
126 158 151 163 188 200 89 115 205 201 146 96 111 121 139 160 190 118 105 59 42 23 11 355 343 336 335 335 330 323 320 318 313 310 307 302 297 291 289 288 290 294 291 289
156 154 175 149 186 170 103 92 176 218 119 117 110 103 88 90 70 98 83 58 37 24 10 355 350 345 337 331 327 321 317 311 311 308 303 298 295 292 287 286 289 296 295 294
152 147 174 160 178 213 135 172 256 103 120 115 98 97 100 106 100 91 76 59 38 18 9 6 355 346 335 333 326 319 314 316 312 308 303 300 296 293 290 291 296 290 294 291
150 129 150 152 107 101 85 69 102 116 117 113 112 103 97 89 83 70 64 46 32 18 4 9 356 342 341 335 325 318 317 317 319 313 308 304 301 298 298 295 290 290 294 293
119 151 129 161 148 131 111 107 113 116 115 100 93 101 94 90 81 72 44 26 11 5 355 348 352 348 346 344 334 325 325 326 323 317 315 312 310 308 302 295 295 297 293 295
50 174 165 125 142 156 154 129 118 115 107 106 97 94 93 94 77 51 43 28 17 4 356 348 355 355 352 348 345 335 330 336 328 325 321 320 316 311 308 304 299 298 298 296
172 167 172 176 134 94 150 135 132 127 119 120 113 99 86 83 71 52 47 33 18 6 359 357 354 349 354 345 347 348 343 341 336 329 329 325 322 319 316 316 317 317 314 314